Terminal Aerodrome Forecast
Issued by NWS Mobile, AL

Home | Current Version | Previous Version | Text Only | Print | Product List | Glossary On
Versions: 1 2 3 4 5 6 7 8 9 10 11 12 13 14 15 16 17 18 19 20 21
000
FTUS44 KMOB 270500
TAFMOB
TAF
KMOB 270540Z 2706/2806 10010KT P6SM OVC080
     FM271500 10010KT 6SM -RA SCT020 OVC035
     FM271800 13012KT 5SM SHRA BR OVC025
     FM280000 13010KT 3SM SHRA OVC009=

USA.gov is the U.S. government's official web portal to all federal, state and local government web resources and services.